ON7DE Weather Reports


Display with metric or nautical units.
time (UTC)temp
F
wind
direction
speed
MPH
gust
MPH
rain 1hr
in
rain 24hr
in
rain mn
in
humidity
%
barometer
mb
20260510074505 59 51 7.0 7.0 0.00 0.00 0.00 70 1014.5
20260510073605 58 52 8.0 10.0 0.00 0.00 0.00 72 1014.5
20260510072704 58 62 8.0 8.0 0.00 0.00 0.00 73 1014.8
20260510071805 57 57 8.0 12.0 0.00 0.00 0.00 74 1014.8
20260510070908 56 54 7.0 8.0 0.00 0.00 0.00 75 1014.8
20260510070004 56 44 5.0 7.0 0.00 0.00 0.00 76 1014.7
20260510065617 56 51 6.0 7.0 0.00 0.00 0.00 77 1015.0
20260510064714 55 48 7.0 8.0 0.00 0.00 0.00 78 1015.0
20260510063603 55 50 8.0 10.0 0.00 0.00 0.00 80 1014.9
20260510062703 55 68 7.0 7.0 0.00 0.00 0.00 80 1014.8
20260510061805 54 64 6.0 7.0 0.00 0.00 0.00 82 1014.7
20260510061119 54 39 7.0 7.0 0.00 0.00 0.00 83 1015.0
20260510060004 53 33 6.0 8.0 0.00 0.00 0.00 85 1015.0
20260510055403 53 49 5.0 7.0 0.00 0.00 0.00 86 1014.8
20260510054505 53 44 5.0 5.0 0.00 0.00 0.00 87 1014.9
20260510053605 53 62 6.0 8.0 0.00 0.00 0.00 88 1014.6
20260510052706 53 34 5.0 6.0 0.00 0.00 0.00 88 1014.8
20260510051805 53 50 5.0 6.0 0.00 0.00 0.00 88 1015.0
20260510050905 52 42 5.0 6.0 0.00 0.00 0.00 88 1014.7
20260510050216 52 50 5.0 5.0 0.00 0.00 0.00 88 1014.9
20260510045403 52 49 5.0 6.0 0.00 0.00 0.00 89 1014.8
20260510044503 52 61 4.0 4.0 0.00 0.00 0.00 89 1014.8
20260510043604 52 49 4.0 4.0 0.00 0.00 0.00 89 1014.6
20260510042703 52 63 3.0 4.0 0.00 0.00 0.00 89 1014.6
20260510041805 52 64 3.0 3.0 0.00 0.00 0.00 89 1014.9
20260510041115 52 72 3.0 3.0 0.00 0.00 0.00 88 1014.7
20260510040217 52 56 4.0 5.0 0.00 0.00 0.00 88 1014.7
20260510035405 52 58 4.0 5.0 0.00 0.00 0.00 87 1014.6
20260510034721 52 68 4.0 5.0 0.00 0.00 0.00 87 1014.9
20260510033605 52 63 3.0 5.0 0.00 0.00 0.00 86 1014.7
20260510032706 52 70 4.0 4.0 0.00 0.00 0.00 86 1014.8
20260510031803 52 54 3.0 4.0 0.00 0.00 0.00 85 1014.9
20260510030904 52 77 3.0 4.0 0.00 0.00 0.00 85 1014.9
20260510030006 52 65 3.0 4.0 0.00 0.00 0.00 84 1015.0
20260510025403 52 66 3.0 3.0 0.00 0.00 0.00 84 1014.7
20260510024717 52 60 3.0 3.0 0.00 0.00 0.00 83 1015.0
20260510023603 52 56 2.0 3.0 0.00 0.00 0.00 83 1014.8
20260510022916 52 58 3.0 4.0 0.00 0.00 0.00 83 1014.8
20260510021805 52 74 2.0 2.0 0.00 0.00 0.00 82 1015.0
20260510020905 52 66 2.0 3.0 0.00 0.00 0.00 81 1015.0
20260510020005 53 67 3.0 4.0 0.00 0.00 0.00 80 1015.2
20260510015620 53 65 3.0 4.0 0.00 0.00 0.00 80 1015.0
20260510014503 53 56 2.0 3.0 0.00 0.00 0.00 79 1015.2
20260510013603 53 58 2.0 3.0 0.00 0.00 0.00 78 1015.1
20260510012703 53 61 2.0 3.0 0.00 0.00 0.00 77 1015.4
20260510011805 54 73 2.0 3.0 0.00 0.00 0.00 76 1015.3
20260510010905 54 72 2.0 3.0 0.00 0.00 0.00 75 1015.1
20260510010004 54 51 2.0 3.0 0.00 0.00 0.00 74 1015.1
20260510005405 54 57 2.0 2.0 0.00 0.00 0.00 74 1015.4
20260510004505 54 61 2.0 3.0 0.00 0.00 0.00 73 1015.2
20260510003605 55 61 3.0 4.0 0.00 0.00 0.00 72 1015.4
20260510002704 55 63 3.0 4.0 0.00 0.00 0.00 71 1015.4
20260510001805 55 59 3.0 4.0 0.00 0.00 0.00 71 1015.4
20260510000908 55 51 4.0 4.0 0.00 0.00 0.00 70 1015.6
20260510000215 55 55 3.0 3.0 0.00 0.00 0.00 71 1015.9
20260509235403 55 63 3.0 3.0 0.00 0.00 0.00 71 1015.7
20260509234503 55 62 2.0 3.0 0.00 0.00 0.00 70 1015.6
20260509233603 55 72 2.0 4.0 0.00 0.00 0.00 70 1015.7
20260509232703 56 61 2.0 3.0 0.00 0.00 0.00 70 1015.9
20260509232016 56 60 2.0 2.0 0.00 0.00 0.00 69 1015.9
20260509230905 56 70 2.0 3.0 0.00 0.00 0.00 68 1015.9
20260509230004 56 66 1.0 2.0 0.00 0.00 0.00 68 1016.0
20260509225403 56 75 2.0 3.0 0.00 0.00 0.00 68 1016.0
20260509224507 56 51 2.0 3.0 0.00 0.00 0.00 68 1015.8
20260509223604 56 67 1.0 2.0 0.00 0.00 0.00 68 1015.9
20260509222704 57 54 2.0 4.0 0.00 0.00 0.00 67 1015.9
20260509221804 57 59 3.0 4.0 0.00 0.00 0.00 66 1015.6
20260509220903 57 71 3.0 4.0 0.00 0.00 0.00 66 1015.9
20260509220221 58 72 3.0 4.0 0.00 0.00 0.00 65 1016.1
20260509215403 58 42 3.0 4.0 0.00 0.00 0.00 65 1015.7
20260509214503 58 57 3.0 4.0 0.00 0.00 0.00 64 1016.0
20260509213817 58 68 3.0 3.0 0.00 0.00 0.00 64 1016.0
20260509212705 59 64 3.0 5.0 0.00 0.00 0.00 64 1015.6
20260509211803 59 54 3.0 4.0 0.00 0.00 0.00 64 1015.8
20260509210903 59 64 4.0 5.0 0.00 0.00 0.00 62 1015.7
20260509210004 60 60 3.0 6.0 0.00 0.00 0.00 63 1015.6
20260509205403 60 66 4.0 6.0 0.00 0.00 0.00 62 1015.5
20260509204505 60 74 4.0 6.0 0.00 0.00 0.00 60 1015.5
20260509203603 61 59 4.0 5.0 0.00 0.00 0.00 60 1015.6
20260509202706 61 65 3.0 5.0 0.00 0.00 0.00 60 1015.7
20260509201806 62 61 4.0 6.0 0.00 0.00 0.00 59 1015.7
20260509200905 62 57 3.0 5.0 0.00 0.00 0.00 59 1015.8
20260509200004 62 57 4.0 5.0 0.00 0.00 0.00 59 1015.6
20260509195405 62 50 4.0 5.0 0.00 0.00 0.00 59 1015.6
20260509194503 62 60 3.0 4.0 0.00 0.00 0.00 60 1015.5
20260509193604 62 55 3.0 5.0 0.00 0.00 0.00 62 1015.2
20260509192705 62 40 1.0 3.0 0.00 0.00 0.00 61 1015.4
20260509191804 63 35 1.0 3.0 0.00 0.00 0.00 61 1015.4
20260509191115 63 45 1.0 3.0 0.00 0.00 0.00 59 1015.4
20260509190218 64 49 2.0 3.0 0.00 0.00 0.00 58 1015.3
20260509185614 64 56 1.0 3.0 0.00 0.00 0.00 57 1015.2
20260509184505 65 41 3.0 5.0 0.00 0.00 0.00 56 1015.1
20260509183605 66 36 3.0 5.0 0.00 0.00 0.00 54 1015.1
20260509182704 67 51 3.0 4.0 0.00 0.00 0.00 52 1015.2
20260509181803 67 79 3.0 4.0 0.00 0.00 0.00 49 1015.2
20260509180904 68 83 2.0 4.0 0.00 0.00 0.00 49 1015.1
20260509180005 68 57 4.0 5.0 0.00 0.00 0.00 48 1015.2
20260509175403 68 59 5.0 5.0 0.00 0.00 0.00 48 1015.1
20260509174504 69 63 2.0 4.0 0.00 0.00 0.00 48 1014.9
20260509173605 69 53 3.0 4.0 0.00 0.00 0.00 47 1014.7
20260509172703 69 62 3.0 4.0 0.00 0.00 0.00 48 1014.9
20260509172014 70 54 2.0 3.0 0.00 0.00 0.00 45 1014.9
20260509170903 69 54 3.0 4.0 0.00 0.00 0.00 44 1014.9
20260509170004 69 31 3.0 3.0 0.00 0.00 0.00 45 1014.8
20260509165405 69 31 3.0 3.0 0.00 0.00 0.00 48 1014.9
20260509164511 69 53 3.0 4.0 0.00 0.00 0.00 46 1015.2
20260509163604 70 83 2.0 3.0 0.00 0.00 0.00 45 1015.1
20260509162704 69 78 4.0 4.0 0.00 0.00 0.00 45 1015.0
20260509161805 69 56 4.0 4.0 0.00 0.00 0.00 47 1015.2
20260509160905 70 41 5.0 5.0 0.00 0.00 0.00 46 1015.0
20260509155404 71 71 4.0 8.0 0.00 0.00 0.00 47 1015.1
20260509153605 71 34 1.0 2.0 0.00 0.00 0.00 42 1015.2
20260509152710 69 75 3.0 5.0 0.00 0.00 0.00 42 1015.2
20260509152015 69 99 2.0 3.0 0.00 0.00 0.00 47 1015.1
20260509150903 71 114 1.0 3.0 0.00 0.00 0.00 47 1015.3
20260509150220 70 103 3.0 4.0 0.00 0.00 0.00 46 1015.1
20260509145405 71 72 4.0 5.0 0.00 0.00 0.00 45 1015.3
20260509144503 70 61 6.0 8.0 0.00 0.00 0.00 45 1015.4
20260509143603 71 51 4.0 6.0 0.00 0.00 0.00 46 1015.4
20260509142703 70 35 3.0 4.0 0.00 0.00 0.00 47 1015.5
20260509141805 69 68 4.0 5.0 0.00 0.00 0.00 48 1015.7
20260509140904 68 56 4.0 5.0 0.00 0.00 0.00 49 1015.7
20260509140005 68 17 5.0 7.0 0.00 0.00 0.00 49 1015.7
20260509135618 68 25 5.0 7.0 0.00 0.00 0.00 48 1015.8
20260509134503 71 52 4.0 7.0 0.00 0.00 0.00 50 1015.8
20260509133605 70 43 4.0 6.0 0.00 0.00 0.00 47 1015.8
20260509132919 71 104 4.0 5.0 0.00 0.00 0.00 46 1016.0
20260509131803 70 49 4.0 5.0 0.00 0.00 0.00 50 1016.3
20260509130903 69 57 5.0 6.0 0.00 0.00 0.00 51 1016.3
20260509130005 69 60 5.0 6.0 0.00 0.00 0.00 48 1016.4
20260509125618 69 53 5.0 6.0 0.00 0.00 0.00 50 1016.3
20260509124503 69 67 4.0 6.0 0.00 0.00 0.00 50 1016.6
20260509123603 68 51 5.0 7.0 0.00 0.00 0.00 51 1016.3
20260509122705 68 105 5.0 8.0 0.00 0.00 0.00 53 1016.6
20260509121803 69 56 7.0 10.0 0.00 0.00 0.00 51 1016.7
20260509121115 68 44 5.0 10.0 0.00 0.00 0.00 51 1016.9
20260509120004 67 51 5.0 8.0 0.00 0.00 0.00 53 1016.9
20260509115410 68 53 4.0 7.0 0.00 0.00 0.00 51 1017.0
20260509114527 69 76 5.0 7.0 0.00 0.00 0.00 49 1017.0
20260509113603 69 73 6.0 7.0 0.00 0.00 0.00 50 1017.3
20260509112703 70 59 3.0 6.0 0.00 0.00 0.00 48 1017.2
20260509111805 68 60 6.0 8.0 0.00 0.00 0.00 50 1017.4
20260509110908 68 72 5.0 7.0 0.00 0.00 0.00 51 1017.4
20260509110007 69 47 3.0 4.0 0.00 0.00 0.00 48 1017.3
20260509105614 69 69 4.0 6.0 0.00 0.00 0.00 51 1017.3
20260509104503 68 71 5.0 6.0 0.00 0.00 0.00 51 1017.5
20260509103814 67 71 5.0 6.0 0.00 0.00 0.00 49 1017.5
20260509102703 67 60 6.0 8.0 0.00 0.00 0.00 52 1017.6
20260509101804 67 64 4.0 5.0 0.00 0.00 0.00 51 1017.7
20260509100903 67 72 5.0 7.0 0.00 0.00 0.00 50 1017.4
20260509100006 66 72 6.0 8.0 0.00 0.00 0.00 52 1017.7
20260509095405 67 70 5.0 8.0 0.00 0.00 0.00 53 1017.6
20260509094504 66 63 7.0 7.0 0.00 0.00 0.00 55 1017.7
20260509093604 66 58 6.0 8.0 0.00 0.00 0.00 55 1017.6
20260509092704 65 55 5.0 6.0 0.00 0.00 0.00 58 1017.9
20260509091803 66 79 4.0 6.0 0.00 0.00 0.00 57 1017.8
20260509090905 65 54 5.0 7.0 0.00 0.00 0.00 57 1018.0
20260509090004 64 56 6.0 7.0 0.00 0.00 0.00 58 1017.9
20260509085405 64 54 6.0 6.0 0.00 0.00 0.00 63 1018.0
20260509084503 63 58 6.0 7.0 0.00 0.00 0.00 61 1017.9
20260509083605 63 55 5.0 6.0 0.00 0.00 0.00 63 1018.0
20260509082705 62 79 5.0 7.0 0.00 0.00 0.00 66 1018.0
20260509081805 61 66 5.0 7.0 0.00 0.00 0.00 67 1018.0
20260509081117 61 74 5.0 6.0 0.00 0.00 0.00 68 1018.2
20260509080004 60 72 4.0 5.0 0.00 0.00 0.00 71 1018.1
20260509075404 60 62 4.0 5.0 0.00 0.00 0.00 73 1018.4